Back to catalog

H-2A R/B(2)

AliveGTO
NORAD 27518·ROCKET BODY·🇯🇵 Japan

Launched Sep 10, 2002 from Tanegashima Space Center

Loading…

TLE

StaleSource: Space-Track

Epoch: Sep 12, 2026, 18:43 UTC

1 27518U 02042D   26255.78031767 -.00000027  00000-0  60393-3 0  9994
2 27518  28.3399 173.8568 7105255 346.3710   1.6597  2.37877980207464

Track H-2A R/B(2) in real time with AllMySat

Download on the App Store